Location: Alladorf
(49.9620°N, 11.3790°E)
Time: 20:58:23
(UTC+00:00)

FALCON 9 DEB - Pass Details

Date: 29 November 2020
Orbit: 373 x 391 km, 53.0° (Epoch: 24 January)

Event Time Altitude Azimuth Distance (km) Brightness Sun altitude
Exits shadow 05:52:43 - 264° (W) 1,490 5.3 -8.8°
Reaches altitude 10° 05:52:50 10° 264° (W) 1,442 5.2 -8.7°
Maximum altitude 05:56:02 61° 346° (NNW) 460 3.0 -8.3°
Drops below altitude 10° 05:59:16 10° 68° (ENE) 1,452 6.5 -7.8°
Sets 06:01:22 0° 72° (ENE) 2,313 7.6 -7.5°
